owner,sensor,date,latitude,longitude,vertical_datum,sea_water_practical_salinity,qcFlag 
ENP,ioos.station.NOAA.NDBC:DKKF1:1,2017-05-01T00:00:00Z,25.1800,-80.4900,1.5,35.0,11111222 
ENP,ioos.station.NOAA.NDBC:DKKF1:1,2017-05-01T06:00:00Z,25.1800,-80.4900,1.5,35.2,11111222 
ENP,ioos.station.NOAA.NDBC:DKKF1:1,2017-05-01T07:00:00Z,25.1800,-80.4900,1.5,35.21,1111122 
ENP,ioos.station.NOAA.NDBC:DKKF1:1,2017-05-01T08:00:00Z,25.1800,-80.4900,1.5,35.2,1111122 
ENP,ioos.station.NOAA.NDBC:DKKF1:1,2017-05-01T10:00:00Z,25.1800,-80.4900,1.5,35.12,1111122 
ENP,ioos.station.NOAA.NDBC:DKKF1:1,2017-05-01T11:00:00Z,25.1800,-80.4900,1.5,35.1,11111222 
ENP,ioos.station.NOAA.NDBC:DKKF1:1,2017-05-01T12:00:00Z,25.1800,-80.4900,1.5,35.1,11111222 
ENP,ioos.station.NOAA.NDBC:DKKF1:1,2017-05-01T13:00:00Z,25.1800,-80.4900,1.5,35.17,1111122 
ENP,ioos.station.NOAA.NDBC:DKKF1:1,2017-05-01T14:00:00Z,25.1800,-80.4900,1.5,35.15,1111122 
ENP,ioos.station.NOAA.NDBC:DKKF1:1,2017-05-01T15:00:00Z,25.1800,-80.4900,1.5,35.1,1111122 
ENP,ioos.station.NOAA.NDBC:DKKF1:1,2017-05-01T16:00:00Z,25.1800,-80.4900,1.5,35.03,1111122 
ENP,ioos.station.NOAA.NDBC:DKKF1:1,2017-05-01T17:00:00Z,25.1800,-80.4900,1.5,34.86,1111122 
ENP,ioos.station.NOAA.NDBC:DKKF1:1,2017-05-01T18:00:00Z,25.1800,-80.4900,1.5,34.64,1111122 
ENP,ioos.station.NOAA.NDBC:DKKF1:1,2017-05-01T19:00:00Z,25.1800,-80.4900,1.5,34.64,1111122 
ENP,ioos.station.NOAA.NDBC:DKKF1:1,2017-05-01T21:00:00Z,25.1800,-80.4900,1.5,34.9,11111222 
ENP,ioos.station.NOAA.NDBC:DKKF1:1,2017-05-01T22:00:00Z,25.1800,-80.4900,1.5,34.9,11111222 
ENP,ioos.station.NOAA.NDBC:DKKF1:1,2017-05-01T23:00:00Z,25.1800,-80.4900,1.5,34.96,1111122 
ENP,ioos.station.NOAA.NDBC:DKKF1:1,2017-05-02T00:00:00Z,25.1800,-80.4900,1.5,35.0,11111222 
ENP,ioos.station.NOAA.NDBC:DKKF1:1,2017-05-02T03:00:00Z,25.1800,-80.4900,1.5,35.09,1111122 
ENP,ioos.station.NOAA.NDBC:DKKF1:1,2017-05-02T06:00:00Z,25.1800,-80.4900,1.5,35.12,1111122 
ENP,ioos.station.NOAA.NDBC:DKKF1:1,2017-05-02T07:00:00Z,25.1800,-80.4900,1.5,35.08,1111122 
ENP,ioos.station.NOAA.NDBC:DKKF1:1,2017-05-02T08:00:00Z,25.1800,-80.4900,1.5,35.12,1111122 
ENP,ioos.station.NOAA.NDBC:DKKF1:1,2017-05-02T10:00:00Z,25.1800,-80.4900,1.5,35.13,1111122 
ENP,ioos.station.NOAA.NDBC:DKKF1:1,2017-05-02T11:00:00Z,25.1800,-80.4900,1.5,35.1,11111222 
ENP,ioos.station.NOAA.NDBC:DKKF1:1,2017-05-02T12:00:00Z,25.1800,-80.4900,1.5,35.1,11111222 
ENP,ioos.station.NOAA.NDBC:DKKF1:1,2017-05-02T13:00:00Z,25.1800,-80.4900,1.5,35.2,11111222 
ENP,ioos.station.NOAA.NDBC:DKKF1:1,2017-05-02T14:00:00Z,25.1800,-80.4900,1.5,35.1,11111222 
ENP,ioos.station.NOAA.NDBC:DKKF1:1,2017-05-02T15:00:00Z,25.1800,-80.4900,1.5,35.1,11111222 
ENP,ioos.station.NOAA.NDBC:DKKF1:1,2017-05-02T16:00:00Z,25.1800,-80.4900,1.5,35.2,11111222 
ENP,ioos.station.NOAA.NDBC:DKKF1:1,2017-05-02T17:00:00Z,25.1800,-80.4900,1.5,35.17,1111122 
ENP,ioos.station.NOAA.NDBC:DKKF1:1,2017-05-02T18:00:00Z,25.1800,-80.4900,1.5,35.2,11111222 
ENP,ioos.station.NOAA.NDBC:DKKF1:1,2017-05-02T19:00:00Z,25.1800,-80.4900,1.5,35.3,11111222 
ENP,ioos.station.NOAA.NDBC:DKKF1:1,2017-05-02T20:00:00Z,25.1800,-80.4900,1.5,35.2,11111222 
ENP,ioos.station.NOAA.NDBC:DKKF1:1,2017-05-02T21:00:00Z,25.1800,-80.4900,1.5,35.3,11111222 
ENP,ioos.station.NOAA.NDBC:DKKF1:1,2017-05-02T22:00:00Z,25.1800,-80.4900,1.5,35.3,11111222 
ENP,ioos.station.NOAA.NDBC:DKKF1:1,2017-05-02T23:00:00Z,25.1800,-80.4900,1.5,35.3,11111222 
ENP,ioos.station.NOAA.NDBC:DKKF1:1,2017-05-03T00:00:00Z,25.1800,-80.4900,1.5,35.3,1111122 
ENP,ioos.station.NOAA.NDBC:DKKF1:1,2017-05-03T03:00:00Z,25.1800,-80.4900,1.5,35.28,1111122 
ENP,ioos.station.NOAA.NDBC:DKKF1:1,2017-05-03T06:00:00Z,25.1800,-80.4900,1.5,35.21,1111122 
ENP,ioos.station.NOAA.NDBC:DKKF1:1,2017-05-03T07:00:00Z,25.1800,-80.4900,1.5,35.2,11111222 
ENP,ioos.station.NOAA.NDBC:DKKF1:1,2017-05-03T08:00:00Z,25.1800,-80.4900,1.5,35.22,1111122 
ENP,ioos.station.NOAA.NDBC:DKKF1:1,2017-05-03T10:00:00Z,25.1800,-80.4900,1.5,35.2,11111222 
ENP,ioos.station.NOAA.NDBC:DKKF1:1,2017-05-03T11:00:00Z,25.1800,-80.4900,1.5,35.2,11111222 
ENP,ioos.station.NOAA.NDBC:DKKF1:1,2017-05-03T12:00:00Z,25.1800,-80.4900,1.5,35.2,11111222 
ENP,ioos.station.NOAA.NDBC:DKKF1:1,2017-05-03T13:00:00Z,25.1800,-80.4900,1.5,35.2,11111222 
ENP,ioos.station.NOAA.NDBC:DKKF1:1,2017-05-03T14:00:00Z,25.1800,-80.4900,1.5,35.21,1111122 
ENP,ioos.station.NOAA.NDBC:DKKF1:1,2017-05-03T15:00:00Z,25.1800,-80.4900,1.5,35.2,11111222 
ENP,ioos.station.NOAA.NDBC:DKKF1:1,2017-05-03T16:00:00Z,25.1800,-80.4900,1.5,35.2,11111222 
ENP,ioos.station.NOAA.NDBC:DKKF1:1,2017-05-03T17:00:00Z,25.1800,-80.4900,1.5,35.2,11111222 
ENP,ioos.station.NOAA.NDBC:DKKF1:1,2017-05-03T18:00:00Z,25.1800,-80.4900,1.5,35.2,11111222 
ENP,ioos.station.NOAA.NDBC:DKKF1:1,2017-05-03T19:00:00Z,25.1800,-80.4900,1.5,35.25,1111122 
ENP,ioos.station.NOAA.NDBC:DKKF1:1,2017-05-03T20:00:00Z,25.1800,-80.4900,1.5,35.3,11111222 
ENP,ioos.station.NOAA.NDBC:DKKF1:1,2017-05-03T21:00:00Z,25.1800,-80.4900,1.5,35.3,11111222 
ENP,ioos.station.NOAA.NDBC:DKKF1:1,2017-05-03T22:00:00Z,25.1800,-80.4900,1.5,35.3,11111222 
ENP,ioos.station.NOAA.NDBC:DKKF1:1,2017-05-03T23:00:00Z,25.1800,-80.4900,1.5,35.3,11111222 
ENP,ioos.station.NOAA.NDBC:DKKF1:1,2017-05-04T00:00:00Z,25.1800,-80.4900,1.5,35.4,11111222 
ENP,ioos.station.NOAA.NDBC:DKKF1:1,2017-05-04T03:00:00Z,25.1800,-80.4900,1.5,35.23,1111122 
ENP,ioos.station.NOAA.NDBC:DKKF1:1,2017-05-04T06:00:00Z,25.1800,-80.4900,1.5,35.06,1111122 
ENP,ioos.station.NOAA.NDBC:DKKF1:1,2017-05-04T07:00:00Z,25.1800,-80.4900,1.5,35.03,1111122 
ENP,ioos.station.NOAA.NDBC:DKKF1:1,2017-05-04T08:00:00Z,25.1800,-80.4900,1.5,35.04,1111122 
ENP,ioos.station.NOAA.NDBC:DKKF1:1,2017-05-04T10:00:00Z,25.1800,-80.4900,1.5,35.1,11111222 
ENP,ioos.station.NOAA.NDBC:DKKF1:1,2017-05-04T11:00:00Z,25.1800,-80.4900,1.5,35.1,11111222 
ENP,ioos.station.NOAA.NDBC:DKKF1:1,2017-05-04T12:00:00Z,25.1800,-80.4900,1.5,35.14,1111122 
ENP,ioos.station.NOAA.NDBC:DKKF1:1,2017-05-04T13:00:00Z,25.1800,-80.4900,1.5,35.1,11111222 
ENP,ioos.station.NOAA.NDBC:DKKF1:1,2017-05-04T14:00:00Z,25.1800,-80.4900,1.5,35.15,1111122 
ENP,ioos.station.NOAA.NDBC:DKKF1:1,2017-05-04T15:00:00Z,25.1800,-80.4900,1.5,35.17,1111122 
ENP,ioos.station.NOAA.NDBC:DKKF1:1,2017-05-04T16:00:00Z,25.1800,-80.4900,1.5,35.2,11111222 
ENP,ioos.station.NOAA.NDBC:DKKF1:1,2017-05-04T17:00:00Z,25.1800,-80.4900,1.5,35.19,1111122 
ENP,ioos.station.NOAA.NDBC:DKKF1:1,2017-05-04T18:00:00Z,25.1800,-80.4900,1.5,35.2,11111222 
ENP,ioos.station.NOAA.NDBC:DKKF1:1,2017-05-04T19:00:00Z,25.1800,-80.4900,1.5,35.3,11111222 
ENP,ioos.station.NOAA.NDBC:DKKF1:1,2017-05-04T20:00:00Z,25.1800,-80.4900,1.5,35.3,11111222 
ENP,ioos.station.NOAA.NDBC:DKKF1:1,2017-05-04T21:00:00Z,25.1800,-80.4900,1.5,35.3,11111222 
ENP,ioos.station.NOAA.NDBC:DKKF1:1,2017-05-04T22:00:00Z,25.1800,-80.4900,1.5,35.3,11111222 
ENP,ioos.station.NOAA.NDBC:DKKF1:1,2017-05-04T23:00:00Z,25.1800,-80.4900,1.5,35.3,11111222 
ENP,ioos.station.NOAA.NDBC:DKKF1:1,2017-05-05T00:00:00Z,25.1800,-80.4900,1.5,35.3,11111222 
ENP,ioos.station.NOAA.NDBC:DKKF1:1,2017-05-05T03:00:00Z,25.1800,-80.4900,1.5,35.3,11111222 
ENP,ioos.station.NOAA.NDBC:DKKF1:1,2017-05-05T06:00:00Z,25.1800,-80.4900,1.5,35.36,1111122 
ENP,ioos.station.NOAA.NDBC:DKKF1:1,2017-05-05T07:00:00Z,25.1800,-80.4900,1.5,35.4,11111222 
ENP,ioos.station.NOAA.NDBC:DKKF1:1,2017-05-05T08:00:00Z,25.1800,-80.4900,1.5,35.4,11111222 
ENP,ioos.station.NOAA.NDBC:DKKF1:1,2017-05-05T10:00:00Z,25.1800,-80.4900,1.5,35.33,1111122 
ENP,ioos.station.NOAA.NDBC:DKKF1:1,2017-05-05T11:00:00Z,25.1800,-80.4900,1.5,35.34,1111122 
ENP,ioos.station.NOAA.NDBC:DKKF1:1,2017-05-05T12:00:00Z,25.1800,-80.4900,1.5,35.4,11111222 
ENP,ioos.station.NOAA.NDBC:DKKF1:1,2017-05-05T13:00:00Z,25.1800,-80.4900,1.5,35.36,1111122 
ENP,ioos.station.NOAA.NDBC:DKKF1:1,2017-05-05T14:00:00Z,25.1800,-80.4900,1.5,35.36,1111122 
ENP,ioos.station.NOAA.NDBC:DKKF1:1,2017-05-05T15:00:00Z,25.1800,-80.4900,1.5,35.36,1111122 
ENP,ioos.station.NOAA.NDBC:DKKF1:1,2017-05-05T16:00:00Z,25.1800,-80.4900,1.5,35.38,1111122 
ENP,ioos.station.NOAA.NDBC:DKKF1:1,2017-05-05T17:00:00Z,25.1800,-80.4900,1.5,35.4,11111222 
ENP,ioos.station.NOAA.NDBC:DKKF1:1,2017-05-05T18:00:00Z,25.1800,-80.4900,1.5,35.4,11111222 
ENP,ioos.station.NOAA.NDBC:DKKF1:1,2017-05-05T19:00:00Z,25.1800,-80.4900,1.5,35.42,1111122 
ENP,ioos.station.NOAA.NDBC:DKKF1:1,2017-05-05T20:00:00Z,25.1800,-80.4900,1.5,35.4,11111222 
ENP,ioos.station.NOAA.NDBC:DKKF1:1,2017-05-05T21:00:00Z,25.1800,-80.4900,1.5,35.5,11111222 
ENP,ioos.station.NOAA.NDBC:DKKF1:1,2017-05-05T22:00:00Z,25.1800,-80.4900,1.5,35.5,11111222 
ENP,ioos.station.NOAA.NDBC:DKKF1:1,2017-05-05T23:00:00Z,25.1800,-80.4900,1.5,35.5,11111222 
ENP,ioos.station.NOAA.NDBC:DKKF1:1,2017-05-06T00:00:00Z,25.1800,-80.4900,1.5,35.5,11111222 
ENP,ioos.station.NOAA.NDBC:DKKF1:1,2017-05-06T03:00:00Z,25.1800,-80.4900,1.5,35.49,1111122 
ENP,ioos.station.NOAA.NDBC:DKKF1:1,2017-05-06T06:00:00Z,25.1800,-80.4900,1.5,35.49,1111122 
ENP,ioos.station.NOAA.NDBC:DKKF1:1,2017-05-06T07:00:00Z,25.1800,-80.4900,1.5,35.5,11111222 
ENP,ioos.station.NOAA.NDBC:DKKF1:1,2017-05-06T08:00:00Z,25.1800,-80.4900,1.5,35.5,11111222 
ENP,ioos.station.NOAA.NDBC:DKKF1:1,2017-05-06T10:00:00Z,25.1800,-80.4900,1.5,35.48,1111122 
ENP,ioos.station.NOAA.NDBC:DKKF1:1,2017-05-06T11:00:00Z,25.1800,-80.4900,1.5,35.48,1111122 
ENP,ioos.station.NOAA.NDBC:DKKF1:1,2017-05-06T12:00:00Z,25.1800,-80.4900,1.5,35.47,1111122 
ENP,ioos.station.NOAA.NDBC:DKKF1:1,2017-05-06T13:00:00Z,25.1800,-80.4900,1.5,35.43,1111122 
ENP,ioos.station.NOAA.NDBC:DKKF1:1,2017-05-06T14:00:00Z,25.1800,-80.4900,1.5,35.42,1111122 
ENP,ioos.station.NOAA.NDBC:DKKF1:1,2017-05-06T15:00:00Z,25.1800,-80.4900,1.5,35.43,1111122 
ENP,ioos.station.NOAA.NDBC:DKKF1:1,2017-05-06T16:00:00Z,25.1800,-80.4900,1.5,35.47,1111122 
ENP,ioos.station.NOAA.NDBC:DKKF1:1,2017-05-06T17:00:00Z,25.1800,-80.4900,1.5,35.51,1111122 
ENP,ioos.station.NOAA.NDBC:DKKF1:1,2017-05-06T18:00:00Z,25.1800,-80.4900,1.5,35.53,1111122 
ENP,ioos.station.NOAA.NDBC:DKKF1:1,2017-05-06T19:00:00Z,25.1800,-80.4900,1.5,35.5,11111222 
ENP,ioos.station.NOAA.NDBC:DKKF1:1,2017-05-06T20:00:00Z,25.1800,-80.4900,1.5,35.6,11111222 
ENP,ioos.station.NOAA.NDBC:DKKF1:1,2017-05-06T21:00:00Z,25.1800,-80.4900,1.5,35.6,11111222 
ENP,ioos.station.NOAA.NDBC:DKKF1:1,2017-05-06T22:00:00Z,25.1800,-80.4900,1.5,35.6,11111222 
ENP,ioos.station.NOAA.NDBC:DKKF1:1,2017-05-06T23:00:00Z,25.1800,-80.4900,1.5,35.7,11111222 
ENP,ioos.station.NOAA.NDBC:DKKF1:1,2017-05-07T00:00:00Z,25.1800,-80.4900,1.5,35.65,1111122 
ENP,ioos.station.NOAA.NDBC:DKKF1:1,2017-05-07T03:00:00Z,25.1800,-80.4900,1.5,35.67,1111122 
ENP,ioos.station.NOAA.NDBC:DKKF1:1,2017-05-07T06:00:00Z,25.1800,-80.4900,1.5,35.64,1111122 
ENP,ioos.station.NOAA.NDBC:DKKF1:1,2017-05-07T08:00:00Z,25.1800,-80.4900,1.5,35.62,1111122 
ENP,ioos.station.NOAA.NDBC:DKKF1:1,2017-05-07T10:00:00Z,25.1800,-80.4900,1.5,35.6,11111222 
ENP,ioos.station.NOAA.NDBC:DKKF1:1,2017-05-07T11:00:00Z,25.1800,-80.4900,1.5,35.5,11111222 
ENP,ioos.station.NOAA.NDBC:DKKF1:1,2017-05-07T12:00:00Z,25.1800,-80.4900,1.5,35.5,11111222 
ENP,ioos.station.NOAA.NDBC:DKKF1:1,2017-05-07T13:00:00Z,25.1800,-80.4900,1.5,35.6,11111222 
ENP,ioos.station.NOAA.NDBC:DKKF1:1,2017-05-07T14:00:00Z,25.1800,-80.4900,1.5,35.6,11111222 
ENP,ioos.station.NOAA.NDBC:DKKF1:1,2017-05-07T15:00:00Z,25.1800,-80.4900,1.5,35.6,11111222 
ENP,ioos.station.NOAA.NDBC:DKKF1:1,2017-05-07T16:00:00Z,25.1800,-80.4900,1.5,35.6,11111222 
ENP,ioos.station.NOAA.NDBC:DKKF1:1,2017-05-07T17:00:00Z,25.1800,-80.4900,1.5,35.6,11111222 
ENP,ioos.station.NOAA.NDBC:DKKF1:1,2017-05-07T18:00:00Z,25.1800,-80.4900,1.5,35.6,11111222 
ENP,ioos.station.NOAA.NDBC:DKKF1:1,2017-05-07T19:00:00Z,25.1800,-80.4900,1.5,35.6,11111222 
ENP,ioos.station.NOAA.NDBC:DKKF1:1,2017-05-07T20:00:00Z,25.1800,-80.4900,1.5,35.7,11111222 
ENP,ioos.station.NOAA.NDBC:DKKF1:1,2017-05-07T21:00:00Z,25.1800,-80.4900,1.5,35.7,11111222 
ENP,ioos.station.NOAA.NDBC:DKKF1:1,2017-05-07T22:00:00Z,25.1800,-80.4900,1.5,35.7,11111222 
ENP,ioos.station.NOAA.NDBC:DKKF1:1,2017-05-07T23:00:00Z,25.1800,-80.4900,1.5,35.7,11111222 
ENP,ioos.station.NOAA.NDBC:DKKF1:1,2017-05-08T00:00:00Z,25.1800,-80.4900,1.5,35.7,11111222 
ENP,ioos.station.NOAA.NDBC:DKKF1:1,2017-05-08T06:00:00Z,25.1800,-80.4900,1.5,35.7,11111222 
ENP,ioos.station.NOAA.NDBC:DKKF1:1,2017-05-08T07:00:00Z,25.1800,-80.4900,1.5,35.7,11111222 
ENP,ioos.station.NOAA.NDBC:DKKF1:1,2017-05-08T08:00:00Z,25.1800,-80.4900,1.5,35.7,11111222 
ENP,ioos.station.NOAA.NDBC:DKKF1:1,2017-05-08T10:00:00Z,25.1800,-80.4900,1.5,35.7,1111122 
ENP,ioos.station.NOAA.NDBC:DKKF1:1,2017-05-08T11:00:00Z,25.1800,-80.4900,1.5,35.7,1111122 
ENP,ioos.station.NOAA.NDBC:DKKF1:1,2017-05-08T12:00:00Z,25.1800,-80.4900,1.5,35.7,11111222 
ENP,ioos.station.NOAA.NDBC:DKKF1:1,2017-05-08T13:00:00Z,25.1800,-80.4900,1.5,35.7,11111222 
ENP,ioos.station.NOAA.NDBC:DKKF1:1,2017-05-08T14:00:00Z,25.1800,-80.4900,1.5,35.7,11111222 
ENP,ioos.station.NOAA.NDBC:DKKF1:1,2017-05-08T15:00:00Z,25.1800,-80.4900,1.5,35.7,11111222 
ENP,ioos.station.NOAA.NDBC:DKKF1:1,2017-05-08T16:00:00Z,25.1800,-80.4900,1.5,35.7,11111222 
ENP,ioos.station.NOAA.NDBC:DKKF1:1,2017-05-08T17:00:00Z,25.1800,-80.4900,1.5,35.7,11111222 
ENP,ioos.station.NOAA.NDBC:DKKF1:1,2017-05-08T18:00:00Z,25.1800,-80.4900,1.5,35.7,11111222 
ENP,ioos.station.NOAA.NDBC:DKKF1:1,2017-05-08T19:00:00Z,25.1800,-80.4900,1.5,35.7,11111222 
ENP,ioos.station.NOAA.NDBC:DKKF1:1,2017-05-08T20:00:00Z,25.1800,-80.4900,1.5,35.7,11111222 
ENP,ioos.station.NOAA.NDBC:DKKF1:1,2017-05-08T21:00:00Z,25.1800,-80.4900,1.5,35.73,1111122 
ENP,ioos.station.NOAA.NDBC:DKKF1:1,2017-05-08T22:00:00Z,25.1800,-80.4900,1.5,35.7,11111222 
ENP,ioos.station.NOAA.NDBC:DKKF1:1,2017-05-08T23:00:00Z,25.1800,-80.4900,1.5,35.7,11111222 
ENP,ioos.station.NOAA.NDBC:DKKF1:1,2017-05-09T00:00:00Z,25.1800,-80.4900,1.5,35.7,11111222 
ENP,ioos.station.NOAA.NDBC:DKKF1:1,2017-05-09T06:00:00Z,25.1800,-80.4900,1.5,35.72,1111122 
ENP,ioos.station.NOAA.NDBC:DKKF1:1,2017-05-09T07:00:00Z,25.1800,-80.4900,1.5,35.68,1111122 
ENP,ioos.station.NOAA.NDBC:DKKF1:1,2017-05-09T08:00:00Z,25.1800,-80.4900,1.5,35.64,1111122 
ENP,ioos.station.NOAA.NDBC:DKKF1:1,2017-05-09T10:00:00Z,25.1800,-80.4900,1.5,35.62,1111122 
ENP,ioos.station.NOAA.NDBC:DKKF1:1,2017-05-09T11:00:00Z,25.1800,-80.4900,1.5,35.59,1111122 
ENP,ioos.station.NOAA.NDBC:DKKF1:1,2017-05-09T12:00:00Z,25.1800,-80.4900,1.5,35.6,11111222 
ENP,ioos.station.NOAA.NDBC:DKKF1:1,2017-05-09T13:00:00Z,25.1800,-80.4900,1.5,35.58,1111122 
ENP,ioos.station.NOAA.NDBC:DKKF1:1,2017-05-09T14:00:00Z,25.1800,-80.4900,1.5,35.57,1111122 
ENP,ioos.station.NOAA.NDBC:DKKF1:1,2017-05-09T15:00:00Z,25.1800,-80.4900,1.5,35.57,1111122 
ENP,ioos.station.NOAA.NDBC:DKKF1:1,2017-05-09T17:00:00Z,25.1800,-80.4900,1.5,35.6,11111222 
ENP,ioos.station.NOAA.NDBC:DKKF1:1,2017-05-09T18:00:00Z,25.1800,-80.4900,1.5,35.6,1111122 
ENP,ioos.station.NOAA.NDBC:DKKF1:1,2017-05-09T19:00:00Z,25.1800,-80.4900,1.5,35.59,1111122 
ENP,ioos.station.NOAA.NDBC:DKKF1:1,2017-05-09T20:00:00Z,25.1800,-80.4900,1.5,35.61,1111122 
ENP,ioos.station.NOAA.NDBC:DKKF1:1,2017-05-09T21:00:00Z,25.1800,-80.4900,1.5,35.6,11111222 
ENP,ioos.station.NOAA.NDBC:DKKF1:1,2017-05-09T22:00:00Z,25.1800,-80.4900,1.5,35.7,11111222 
ENP,ioos.station.NOAA.NDBC:DKKF1:1,2017-05-09T23:00:00Z,25.1800,-80.4900,1.5,35.7,11111222 
ENP,ioos.station.NOAA.NDBC:DKKF1:1,2017-05-10T00:00:00Z,25.1800,-80.4900,1.5,35.7,11111222 
ENP,ioos.station.NOAA.NDBC:DKKF1:1,2017-05-10T03:00:00Z,25.1800,-80.4900,1.5,35.64,1111122 
ENP,ioos.station.NOAA.NDBC:DKKF1:1,2017-05-10T06:00:00Z,25.1800,-80.4900,1.5,35.64,1111122 
ENP,ioos.station.NOAA.NDBC:DKKF1:1,2017-05-10T07:00:00Z,25.1800,-80.4900,1.5,35.66,1111122 
ENP,ioos.station.NOAA.NDBC:DKKF1:1,2017-05-10T08:00:00Z,25.1800,-80.4900,1.5,35.66,1111122 
ENP,ioos.station.NOAA.NDBC:DKKF1:1,2017-05-10T10:00:00Z,25.1800,-80.4900,1.5,35.63,1111122 
ENP,ioos.station.NOAA.NDBC:DKKF1:1,2017-05-10T11:00:00Z,25.1800,-80.4900,1.5,35.62,1111122 
ENP,ioos.station.NOAA.NDBC:DKKF1:1,2017-05-10T12:00:00Z,25.1800,-80.4900,1.5,35.7,11111222 
ENP,ioos.station.NOAA.NDBC:DKKF1:1,2017-05-10T13:00:00Z,25.1800,-80.4900,1.5,35.64,1111122 
ENP,ioos.station.NOAA.NDBC:DKKF1:1,2017-05-10T14:00:00Z,25.1800,-80.4900,1.5,35.61,1111122 
ENP,ioos.station.NOAA.NDBC:DKKF1:1,2017-05-10T15:00:00Z,25.1800,-80.4900,1.5,35.6,11111222 
ENP,ioos.station.NOAA.NDBC:DKKF1:1,2017-05-10T16:00:00Z,25.1800,-80.4900,1.5,35.62,1111122 
ENP,ioos.station.NOAA.NDBC:DKKF1:1,2017-05-10T17:00:00Z,25.1800,-80.4900,1.5,35.62,1111122 
ENP,ioos.station.NOAA.NDBC:DKKF1:1,2017-05-10T18:00:00Z,25.1800,-80.4900,1.5,35.64,1111122 
ENP,ioos.station.NOAA.NDBC:DKKF1:1,2017-05-10T19:00:00Z,25.1800,-80.4900,1.5,35.68,1111122 
ENP,ioos.station.NOAA.NDBC:DKKF1:1,2017-05-10T20:00:00Z,25.1800,-80.4900,1.5,35.71,1111122 
ENP,ioos.station.NOAA.NDBC:DKKF1:1,2017-05-10T21:00:00Z,25.1800,-80.4900,1.5,35.7,11111222 
ENP,ioos.station.NOAA.NDBC:DKKF1:1,2017-05-10T22:00:00Z,25.1800,-80.4900,1.5,35.8,11111222 
ENP,ioos.station.NOAA.NDBC:DKKF1:1,2017-05-10T23:00:00Z,25.1800,-80.4900,1.5,35.8,11111222 
ENP,ioos.station.NOAA.NDBC:DKKF1:1,2017-05-11T00:00:00Z,25.1800,-80.4900,1.5,35.74,1111122 
ENP,ioos.station.NOAA.NDBC:DKKF1:1,2017-05-11T03:00:00Z,25.1800,-80.4900,1.5,35.77,1111122 
ENP,ioos.station.NOAA.NDBC:DKKF1:1,2017-05-11T06:00:00Z,25.1800,-80.4900,1.5,35.77,1111122 
ENP,ioos.station.NOAA.NDBC:DKKF1:1,2017-05-11T07:00:00Z,25.1800,-80.4900,1.5,35.8,1111122 
ENP,ioos.station.NOAA.NDBC:DKKF1:1,2017-05-11T08:00:00Z,25.1800,-80.4900,1.5,35.8,1111122 
ENP,ioos.station.NOAA.NDBC:DKKF1:1,2017-05-11T10:00:00Z,25.1800,-80.4900,1.5,35.78,1111122 
ENP,ioos.station.NOAA.NDBC:DKKF1:1,2017-05-11T11:00:00Z,25.1800,-80.4900,1.5,35.77,1111122 
ENP,ioos.station.NOAA.NDBC:DKKF1:1,2017-05-11T12:00:00Z,25.1800,-80.4900,1.5,35.7,11111222 
ENP,ioos.station.NOAA.NDBC:DKKF1:1,2017-05-11T15:00:00Z,25.1800,-80.4900,1.5,35.71,1111122 
ENP,ioos.station.NOAA.NDBC:DKKF1:1,2017-05-11T16:00:00Z,25.1800,-80.4900,1.5,35.71,1111122 
ENP,ioos.station.NOAA.NDBC:DKKF1:1,2017-05-11T17:00:00Z,25.1800,-80.4900,1.5,35.71,1111122 
ENP,ioos.station.NOAA.NDBC:DKKF1:1,2017-05-11T18:00:00Z,25.1800,-80.4900,1.5,35.74,1111122 
ENP,ioos.station.NOAA.NDBC:DKKF1:1,2017-05-11T19:00:00Z,25.1800,-80.4900,1.5,35.76,1111122 
ENP,ioos.station.NOAA.NDBC:DKKF1:1,2017-05-11T20:00:00Z,25.1800,-80.4900,1.5,35.77,1111122 
ENP,ioos.station.NOAA.NDBC:DKKF1:1,2017-05-11T21:00:00Z,25.1800,-80.4900,1.5,35.8,11111222 
ENP,ioos.station.NOAA.NDBC:DKKF1:1,2017-05-11T22:00:00Z,25.1800,-80.4900,1.5,35.8,11111222 
ENP,ioos.station.NOAA.NDBC:DKKF1:1,2017-05-11T23:00:00Z,25.1800,-80.4900,1.5,35.8,11111222 
ENP,ioos.station.NOAA.NDBC:DKKF1:1,2017-05-12T00:00:00Z,25.1800,-80.4900,1.5,35.78,1111122 
ENP,ioos.station.NOAA.NDBC:DKKF1:1,2017-05-12T03:00:00Z,25.1800,-80.4900,1.5,35.74,1111122 
ENP,ioos.station.NOAA.NDBC:DKKF1:1,2017-05-12T06:00:00Z,25.1800,-80.4900,1.5,35.69,1111122 
ENP,ioos.station.NOAA.NDBC:DKKF1:1,2017-05-12T07:00:00Z,25.1800,-80.4900,1.5,35.68,1111122 
ENP,ioos.station.NOAA.NDBC:DKKF1:1,2017-05-12T08:00:00Z,25.1800,-80.4900,1.5,35.68,1111122 
ENP,ioos.station.NOAA.NDBC:DKKF1:1,2017-05-12T10:00:00Z,25.1800,-80.4900,1.5,35.67,1111122 
ENP,ioos.station.NOAA.NDBC:DKKF1:1,2017-05-12T11:00:00Z,25.1800,-80.4900,1.5,35.67,1111122 
ENP,ioos.station.NOAA.NDBC:DKKF1:1,2017-05-12T12:00:00Z,25.1800,-80.4900,1.5,35.7,11111222 
ENP,ioos.station.NOAA.NDBC:DKKF1:1,2017-05-12T13:00:00Z,25.1800,-80.4900,1.5,35.68,1111122 
ENP,ioos.station.NOAA.NDBC:DKKF1:1,2017-05-12T14:00:00Z,25.1800,-80.4900,1.5,35.68,1111122 
ENP,ioos.station.NOAA.NDBC:DKKF1:1,2017-05-12T15:00:00Z,25.1800,-80.4900,1.5,35.68,1111122 
ENP,ioos.station.NOAA.NDBC:DKKF1:1,2017-05-12T16:00:00Z,25.1800,-80.4900,1.5,35.7,1111122 
ENP,ioos.station.NOAA.NDBC:DKKF1:1,2017-05-12T17:00:00Z,25.1800,-80.4900,1.5,35.72,1111122 
ENP,ioos.station.NOAA.NDBC:DKKF1:1,2017-05-12T18:00:00Z,25.1800,-80.4900,1.5,35.74,1111122 
ENP,ioos.station.NOAA.NDBC:DKKF1:1,2017-05-12T19:00:00Z,25.1800,-80.4900,1.5,35.76,1111122 
ENP,ioos.station.NOAA.NDBC:DKKF1:1,2017-05-12T20:00:00Z,25.1800,-80.4900,1.5,35.79,1111122 
ENP,ioos.station.NOAA.NDBC:DKKF1:1,2017-05-12T21:00:00Z,25.1800,-80.4900,1.5,35.8,11111222 
ENP,ioos.station.NOAA.NDBC:DKKF1:1,2017-05-12T22:00:00Z,25.1800,-80.4900,1.5,35.8,11111222 
ENP,ioos.station.NOAA.NDBC:DKKF1:1,2017-05-12T23:00:00Z,25.1800,-80.4900,1.5,35.8,11111222 
ENP,ioos.station.NOAA.NDBC:DKKF1:1,2017-05-13T00:00:00Z,25.1800,-80.4900,1.5,35.8,11111222 
ENP,ioos.station.NOAA.NDBC:DKKF1:1,2017-05-13T06:00:00Z,25.1800,-80.4900,1.5,35.8,11111222 
ENP,ioos.station.NOAA.NDBC:DKKF1:1,2017-05-13T07:00:00Z,25.1800,-80.4900,1.5,35.8,11111222 
ENP,ioos.station.NOAA.NDBC:DKKF1:1,2017-05-13T08:00:00Z,25.1800,-80.4900,1.5,35.7,11111222 
ENP,ioos.station.NOAA.NDBC:DKKF1:1,2017-05-13T10:00:00Z,25.1800,-80.4900,1.5,35.8,11111222 
ENP,ioos.station.NOAA.NDBC:DKKF1:1,2017-05-13T11:00:00Z,25.1800,-80.4900,1.5,35.7,11111222 
ENP,ioos.station.NOAA.NDBC:DKKF1:1,2017-05-13T12:00:00Z,25.1800,-80.4900,1.5,35.7,11111222 
ENP,ioos.station.NOAA.NDBC:DKKF1:1,2017-05-13T13:00:00Z,25.1800,-80.4900,1.5,35.8,11111222 
ENP,ioos.station.NOAA.NDBC:DKKF1:1,2017-05-13T14:00:00Z,25.1800,-80.4900,1.5,35.7,11111222 
ENP,ioos.station.NOAA.NDBC:DKKF1:1,2017-05-13T15:00:00Z,25.1800,-80.4900,1.5,35.7,11111222 
ENP,ioos.station.NOAA.NDBC:DKKF1:1,2017-05-13T16:00:00Z,25.1800,-80.4900,1.5,35.7,11111222 
ENP,ioos.station.NOAA.NDBC:DKKF1:1,2017-05-13T17:00:00Z,25.1800,-80.4900,1.5,35.7,11111222 
ENP,ioos.station.NOAA.NDBC:DKKF1:1,2017-05-13T18:00:00Z,25.1800,-80.4900,1.5,35.7,11111222 
ENP,ioos.station.NOAA.NDBC:DKKF1:1,2017-05-13T19:00:00Z,25.1800,-80.4900,1.5,35.7,11111222 
ENP,ioos.station.NOAA.NDBC:DKKF1:1,2017-05-13T20:00:00Z,25.1800,-80.4900,1.5,35.7,11111222 
ENP,ioos.station.NOAA.NDBC:DKKF1:1,2017-05-13T21:00:00Z,25.1800,-80.4900,1.5,35.7,11111222 
ENP,ioos.station.NOAA.NDBC:DKKF1:1,2017-05-13T22:00:00Z,25.1800,-80.4900,1.5,35.7,11111222 
ENP,ioos.station.NOAA.NDBC:DKKF1:1,2017-05-13T23:00:00Z,25.1800,-80.4900,1.5,35.7,11111222 
ENP,ioos.station.NOAA.NDBC:DKKF1:1,2017-05-14T00:00:00Z,25.1800,-80.4900,1.5,35.7,11111222 
ENP,ioos.station.NOAA.NDBC:DKKF1:1,2017-05-14T03:00:00Z,25.1800,-80.4900,1.5,35.7,11111222 
ENP,ioos.station.NOAA.NDBC:DKKF1:1,2017-05-14T06:00:00Z,25.1800,-80.4900,1.5,35.7,11111222 
ENP,ioos.station.NOAA.NDBC:DKKF1:1,2017-05-14T07:00:00Z,25.1800,-80.4900,1.5,35.6,11111222 
ENP,ioos.station.NOAA.NDBC:DKKF1:1,2017-05-14T08:00:00Z,25.1800,-80.4900,1.5,35.6,11111222 
ENP,ioos.station.NOAA.NDBC:DKKF1:1,2017-05-14T10:00:00Z,25.1800,-80.4900,1.5,35.6,11111222 
ENP,ioos.station.NOAA.NDBC:DKKF1:1,2017-05-14T11:00:00Z,25.1800,-80.4900,1.5,35.6,11111222 
ENP,ioos.station.NOAA.NDBC:DKKF1:1,2017-05-14T12:00:00Z,25.1800,-80.4900,1.5,35.6,11111222 
ENP,ioos.station.NOAA.NDBC:DKKF1:1,2017-05-14T13:00:00Z,25.1800,-80.4900,1.5,35.63,1111122 
ENP,ioos.station.NOAA.NDBC:DKKF1:1,2017-05-14T14:00:00Z,25.1800,-80.4900,1.5,35.64,1111122 
ENP,ioos.station.NOAA.NDBC:DKKF1:1,2017-05-14T15:00:00Z,25.1800,-80.4900,1.5,35.64,1111122 
ENP,ioos.station.NOAA.NDBC:DKKF1:1,2017-05-14T16:00:00Z,25.1800,-80.4900,1.5,35.62,1111122 
ENP,ioos.station.NOAA.NDBC:DKKF1:1,2017-05-14T17:00:00Z,25.1800,-80.4900,1.5,35.62,1111122 
ENP,ioos.station.NOAA.NDBC:DKKF1:1,2017-05-14T18:00:00Z,25.1800,-80.4900,1.5,35.64,1111122 
ENP,ioos.station.NOAA.NDBC:DKKF1:1,2017-05-14T19:00:00Z,25.1800,-80.4900,1.5,35.65,1111122 
ENP,ioos.station.NOAA.NDBC:DKKF1:1,2017-05-14T20:00:00Z,25.1800,-80.4900,1.5,35.65,1111122 
ENP,ioos.station.NOAA.NDBC:DKKF1:1,2017-05-14T21:00:00Z,25.1800,-80.4900,1.5,35.7,11111222 
ENP,ioos.station.NOAA.NDBC:DKKF1:1,2017-05-14T22:00:00Z,25.1800,-80.4900,1.5,35.7,11111222 
ENP,ioos.station.NOAA.NDBC:DKKF1:1,2017-05-14T23:00:00Z,25.1800,-80.4900,1.5,35.7,11111222 
ENP,ioos.station.NOAA.NDBC:DKKF1:1,2017-05-15T00:00:00Z,25.1800,-80.4900,1.5,35.7,11111222 
ENP,ioos.station.NOAA.NDBC:DKKF1:1,2017-05-15T03:00:00Z,25.1800,-80.4900,1.5,35.64,1111122 
ENP,ioos.station.NOAA.NDBC:DKKF1:1,2017-05-15T06:00:00Z,25.1800,-80.4900,1.5,35.64,1111122 